[[{"header":{"parameterUnit":"m.s-1","parameterCategory":1,"la1":30.2991,"la2":30.254,"lo1":-89.0895,"lo2":-89.0444,"dy":0.0017,"dx":0.0017,"nx":28,"ny":28,"refTime":"2024-07-23T03:00:00:Z","depth":0,"parameterNumber":2,"parameterNumberName":"U-component_of_WINDS"},"data":[0,0,0,0,0,0,0,0,0,0,0,0,0,0,0,0,0,0,0,0,0,0,0,0,0,0,0,0,0,0,0,0,0,0,0,0,0,0,0,0,0,0,0,0,0,0,0,0,0,0,0,0,0,0,0,0,0,0,-1.9894,-1.9895,0,-2.0002,-2.0003,-2.0005,-2.0017,-2.0016,-2.0015,-2.0014,-2.0123,-2.0127,-2.0131,0,0,0,0,0,0,0,0,0,0,0,0,0,-1.9697,-1.97,-1.9894,-1.9895,-1.9897,-2.0002,-2.0003,-2.0005,-2.0017,-2.0016,-2.0014,-2.0013,-2.0122,-2.0126,-2.0131,0,0,0,0,0,0,0,0,0,0,0,0,0,-1.9791,-1.9701,-1.9894,-1.9916,-1.9919,-2.0002,-2.0003,-2.0005,-2.0017,-2.0016,-2.0014,-2.0013,-2.012,-2.0126,-2.0132,-2.02,0,0,-2.015,-2.0152,0,0,0,0,0,0,0,0,-1.9786,-1.9798,-1.9911,-1.9914,-1.9918,-1.9994,-1.9974,-2.0071,-2.0018,-1.998,-2.0014,-2.0012,-2.0082,-2.0091,-2.0114,-2.0205,-2.021,-2.015,-2.0154,-2.0156,-2.0158,0,0,0,0,0,0,0,-1.9779,-1.9794,-1.9937,-1.9913,-1.9917,-1.9919,-1.9931,-1.9992,-2.0038,-1.9983,-1.9984,-1.9997,-2.0083,-2.0109,-2.0117,-2.0212,-2.015,-2.0155,-2.0159,-2.0161,-2.0363,-2.0364,0,0,0,0,0,0,-1.9769,-1.9788,-1.9933,-1.994,-1.9847,-1.9924,-1.9937,-1.9971,-2.0038,-2.0046,-1.9998,-1.9997,-2.0099,-2.011,-2.0121,-2.0204,-2.0156,-2.0162,-2.0165,-2.0361,-2.0363,-2.0365,0,0,0,0,0,0,-1.9765,-1.9782,-1.9929,-1.9865,-1.9884,-1.9929,-1.9968,-1.9974,-2.0,-2.0049,-2.0057,-2.0016,-2.0098,-2.0113,-2.018,-2.0208,-2.0164,-2.017,-2.0359,-2.0362,-2.0364,-2.037,0,0,0,0,0,0,-1.9759,-1.978,-1.9807,-1.9865,-1.9887,-1.9987,-1.9969,-1.9978,-2.001,-2.001,-2.0068,-2.0076,-2.0098,-2.0171,-2.0186,-2.0215,-2.0174,-2.0356,-2.036,-2.0363,-2.0368,-2.0373,-2.0377,0,0,0,0,0,-1.9752,-1.9805,-1.9808,-1.9826,-1.9922,-1.9988,-2.0001,-2.0026,-2.0012,-2.0039,-2.0071,-2.0074,-2.0203,-2.0178,-2.0195,-2.0226,-2.0355,-2.0359,-2.0363,-2.0366,-2.0372,-2.0377,0,0,0,0,0,0,-1.9748,-1.9813,-1.9817,-1.9891,-1.9934,-1.999,-2.0025,-2.0032,-2.008,-2.0077,-2.0106,-2.0119,-2.0185,-2.0213,-2.0184,-2.0295,-2.0277,-2.0285,-2.0274,-2.028,-2.0285,-2.0276,-2.0179,0,0,0,0,0,-1.9756,-1.9806,-1.9859,-1.9919,-1.994,-1.9979,-2.0009,-2.0025,-2.007,-2.0089,-2.0125,-2.0169,-2.0219,-2.0252,-2.0301,-2.0373,-2.0385,-2.0402,-2.0407,-2.0411,-2.0416,-2.0454,-2.0462,-2.0379,-2.0379,-2.0378,0,0,-1.9772,-1.9814,-1.9843,-1.9919,-1.9954,-2.0004,-1.9994,-2.0048,-2.0084,-2.0097,-2.0162,-2.0191,-2.0242,-2.0311,-2.0344,-2.0336,-2.0442,-2.0416,-2.0419,-2.0422,-2.0459,-2.0467,-2.0474,-2.0381,-2.0381,-2.038,0,0,-1.9827,-1.9864,-1.9917,-1.9953,-2.0006,-2.0032,-2.0045,-2.01,-2.0119,-2.0186,-2.0196,-2.024,-2.0326,-2.0362,-2.0391,-2.0459,-2.0463,-2.0474,-2.0498,-2.0535,-2.0541,-2.0547,-2.0569,-2.0577,-2.048,-2.048,-2.048,0,-1.984,-1.9916,-1.9943,-1.9996,-2.0028,-2.0042,-2.0095,-2.0128,-2.0195,-2.0217,-2.0208,-2.0316,-2.0351,-2.0428,-2.0444,-2.0469,-2.0483,-2.0466,-2.0538,-2.0545,-2.0551,-2.0572,-2.058,-2.0481,-2.0481,-2.0481,-2.0481,0,-1.9928,-1.9981,-2.0017,-2.0081,-2.0118,-2.017,-2.0204,-2.0238,-2.0251,-2.0277,-2.0343,-2.0387,-2.0444,-2.0464,-2.0477,-2.0543,-2.0536,-2.0533,-2.0515,-2.0559,-2.0579,-2.0588,-2.0482,-2.0482,-2.0481,-2.0481,0,0,-1.9982,-2.0061,-2.0073,-2.0102,-2.0162,-2.0203,-2.0256,-2.0312,-2.0339,-2.0386,-2.0429,-2.0502,-2.0499,-2.0532,-2.055,-2.0582,-2.063,-2.0575,-2.0576,-2.0581,-2.0703,-2.0703,-2.0712,-2.0635,-2.0636,-2.0638,-2.0698,0,-2.0042,-2.0137,-2.0162,-2.0242,-2.029,-2.0304,-2.035,-2.0391,-2.0417,-2.0461,-2.049,-2.054,-2.0533,-2.0553,-2.0587,-2.0617,-2.0655,-2.0614,-2.0674,-2.0676,-2.0658,-2.0723,-2.0724,-2.0779,-2.0706,-2.0708,-2.0709,0,-2.0124,-2.0171,-2.0255,-2.0309,-2.033,-2.037,-2.0423,-2.0466,-2.0513,-2.0529,-2.0566,-2.058,-2.0635,-2.0616,-2.0691,-2.0662,-2.0689,-2.0708,-2.0711,-2.0715,-2.0693,-2.0727,-2.0797,-2.0804,-2.0722,-2.0721,-2.072,0,-2.0152,-2.0237,-2.0297,-2.0322,-2.0386,-2.0414,-2.0442,-2.0488,-2.052,-2.0566,-2.0587,-2.0639,-2.0667,-2.0707,-2.0734,-2.0719,-2.0806,-2.079,-2.0819,-2.0819,-2.0835,-2.0833,-2.0908,-2.0856,-2.0856,-2.0856,-2.0856,0,-2.0214,-2.0264,-2.0311,-2.0348,-2.0404,-2.0434,-2.0489,-2.0517,-2.0558,-2.06,-2.0617,-2.0656,-2.0691,-2.0735,-2.0757,-2.0814,-2.0827,-2.0841,-2.0846,-2.0838,-2.0836,-2.0854,-2.085,-2.0858,-2.0858,-2.0857,-2.0857,0,-2.0253,-2.0287,-2.0354,-2.0409,-2.0424,-2.0463,-2.051,-2.0547,-2.0573,-2.0627,-2.0641,-2.0683,-2.0735,-2.0767,-2.0834,-2.0848,-2.0911,-2.0915,-2.0894,-2.0896,-2.0923,-2.0919,-2.1009,-2.1022,-2.0964,-2.0965,-2.0965,0,-2.029,-2.0329,-2.0388,-2.0418,-2.0446,-2.0494,-2.0526,-2.0557,-2.059,-2.0646,-2.0675,-2.0729,-2.0773,-2.0856,-2.0891,-2.0942,-2.0946,-2.0975,-2.0954,-2.0945,-2.0944,-2.094,-2.0943,-2.0977,-2.0978,-2.0978,-2.0978,0,-2.035,-2.0365,-2.0411,-2.0463,-2.0501,-2.0543,-2.0585,-2.0609,-2.0646,-2.0682,-2.0736,-2.077,-2.0838,-2.089,-2.0944,-2.0972,-2.0981,-2.0985,-2.0994,-2.0985,-2.0971,-2.0977,-2.0901,-2.0982,-2.0982,-2.0982,-2.0981,-2.0981,-2.0388,-2.0422,-2.0469,-2.052,-2.0555,-2.0594,-2.063,-2.0662,-2.0707,-2.0764,-2.078,-2.0835,-2.0881,-2.0954,-2.0983,-2.1027,-2.1022,-2.1036,-2.1039,-2.1041,-2.1041,-2.0966,-2.1037,-2.1037,-2.1037,-2.1037,-2.1037,0,-2.0447,-2.0478,-2.0524,-2.0582,-2.0622,-2.0628,-2.0675,-2.0707,-2.0756,-2.0798,-2.0841,-2.0902,-2.0953,-2.0993,-2.1045,-2.1072,-2.1077,-2.1084,-2.1081,-2.1087,-2.1043,-2.1028,-2.1079,-2.1079,-2.1079,-2.1079,-2.1079,-2.1079,-2.0482,-2.054,-2.056,-2.0636,-2.0667,-2.0721,-2.0747,-2.0783,-2.0816,-2.0883,-2.0925,-2.0952,-2.0992,-2.1047,-2.1093,-2.1104,-2.1121,-2.1127,-2.1138,-2.1095,-2.109,-2.1086,-2.1073,-2.1131,-2.1131,-2.1178,-2.1179,-2.1179]},{"header":{"parameterUnit":"m.s-1","parameterCategory":1,"la1":30.2991,"la2":30.254,"lo1":-89.0895,"lo2":-89.0444,"dy":0.0017,"dx":0.0017,"nx":28,"ny":28,"refTime":"2024-07-23T03:00:00:Z","depth":0,"parameterNumber":3,"parameterNumberName":"V-component_of_WINDS"},"data":[0,0,0,0,0,0,0,0,0,0,0,0,0,0,0,0,0,0,0,0,0,0,0,0,0,0,0,0,0,0,0,0,0,0,0,0,0,0,0,0,0,0,0,0,0,0,0,0,0,0,0,0,0,0,0,0,0,0,-0.7005,-0.7005,0,-0.7026,-0.7026,-0.7027,-0.7066,-0.7066,-0.7067,-0.7068,-0.7087,-0.7087,-0.7087,0,0,0,0,0,0,0,0,0,0,0,0,0,-0.6996,-0.6996,-0.7005,-0.7005,-0.7005,-0.7026,-0.7026,-0.7027,-0.7066,-0.7066,-0.7067,-0.7068,-0.7087,-0.7087,-0.7087,0,0,0,0,0,0,0,0,0,0,0,0,0,-0.7007,-0.6996,-0.7005,-0.7027,-0.703,-0.7026,-0.7026,-0.7027,-0.7065,-0.7067,-0.7068,-0.7069,-0.7088,-0.7087,-0.7087,-0.7062,0,0,-0.7086,-0.7086,0,0,0,0,0,0,0,0,-0.7006,-0.7007,-0.7024,-0.7026,-0.7028,-0.7045,-0.703,-0.7039,-0.7065,-0.7052,-0.7068,-0.7069,-0.7072,-0.7073,-0.7074,-0.7063,-0.7064,-0.7086,-0.7086,-0.7086,-0.7086,0,0,0,0,0,0,0,-0.7005,-0.7006,-0.7013,-0.7024,-0.7027,-0.7036,-0.7039,-0.7032,-0.7055,-0.7053,-0.7056,-0.7058,-0.7073,-0.7075,-0.7075,-0.7064,-0.7086,-0.7086,-0.7086,-0.7086,-0.7033,-0.7032,0,0,0,0,0,0,-0.7002,-0.7006,-0.7013,-0.7014,-0.702,-0.7035,-0.7038,-0.7038,-0.7055,-0.7059,-0.7057,-0.706,-0.7075,-0.7076,-0.7076,-0.7048,-0.7086,-0.7085,-0.7085,-0.7034,-0.7033,-0.7032,0,0,0,0,0,0,-0.7001,-0.7002,-0.7012,-0.7011,-0.7013,-0.7034,-0.7034,-0.7038,-0.7039,-0.7058,-0.7062,-0.7054,-0.7076,-0.7076,-0.7065,-0.7049,-0.7085,-0.7085,-0.7036,-0.7034,-0.7032,-0.6991,0,0,0,0,0,0,-0.7001,-0.7002,-0.6993,-0.701,-0.7012,-0.7001,-0.7033,-0.7038,-0.7039,-0.7043,-0.7057,-0.706,-0.7077,-0.7066,-0.7065,-0.7049,-0.7085,-0.7037,-0.7035,-0.7033,-0.6994,-0.6988,-0.6983,0,0,0,0,0,-0.7001,-0.698,-0.6992,-0.6993,-0.7002,-0.7,-0.7001,-0.7021,-0.7037,-0.7028,-0.7041,-0.706,-0.7051,-0.7064,-0.7064,-0.7048,-0.7039,-0.7036,-0.7033,-0.6996,-0.6989,-0.6983,0,0,0,0,0,0,-0.6959,-0.6983,-0.6996,-0.6981,-0.6988,-0.7007,-0.6996,-0.7013,-0.7015,-0.7019,-0.7043,-0.7046,-0.7031,-0.7039,-0.7053,-0.7024,-0.7048,-0.7045,-0.702,-0.7013,-0.7008,-0.7005,-0.7085,0,0,0,0,0,-0.6949,-0.6946,-0.6966,-0.6951,-0.6954,-0.6974,-0.6974,-0.6989,-0.6997,-0.7,-0.7012,-0.7018,-0.7017,-0.7016,-0.7016,-0.6995,-0.6998,-0.6984,-0.6979,-0.6974,-0.6971,-0.6959,-0.6953,-0.7023,-0.7023,-0.7023,0,0,-0.6926,-0.6939,-0.6935,-0.6943,-0.695,-0.6946,-0.6976,-0.6971,-0.6968,-0.6999,-0.6989,-0.6998,-0.7007,-0.6991,-0.6985,-0.6997,-0.6952,-0.697,-0.6967,-0.6966,-0.6956,-0.6949,-0.6943,-0.7021,-0.7021,-0.7021,0,0,-0.6883,-0.6893,-0.688,-0.6887,-0.6899,-0.6912,-0.6909,-0.6925,-0.6932,-0.6923,-0.6947,-0.6943,-0.6941,-0.6946,-0.6948,-0.6907,-0.6924,-0.6906,-0.6877,-0.6866,-0.686,-0.6855,-0.684,-0.6834,-0.6903,-0.6903,-0.6903,0,-0.6853,-0.6849,-0.6872,-0.6864,-0.6867,-0.6896,-0.6883,-0.6889,-0.6899,-0.6899,-0.6913,-0.6911,-0.6919,-0.6904,-0.6894,-0.6895,-0.6892,-0.6904,-0.6859,-0.6855,-0.6851,-0.6836,-0.683,-0.6901,-0.6901,-0.6901,-0.6902,0,-0.6811,-0.6807,-0.6796,-0.6806,-0.6807,-0.6797,-0.6818,-0.6816,-0.6831,-0.6843,-0.6832,-0.6844,-0.6846,-0.6844,-0.6858,-0.6831,-0.6838,-0.6855,-0.6879,-0.6841,-0.6828,-0.6822,-0.6898,-0.6898,-0.6899,-0.69,0,0,-0.6741,-0.6764,-0.676,-0.6764,-0.6779,-0.6776,-0.6767,-0.677,-0.6768,-0.6774,-0.6766,-0.6764,-0.678,-0.6783,-0.6798,-0.6788,-0.6753,-0.6807,-0.6807,-0.6795,-0.6723,-0.6708,-0.6701,-0.6766,-0.6765,-0.6764,-0.6721,0,-0.67,-0.6686,-0.6707,-0.6689,-0.6685,-0.6713,-0.6705,-0.6713,-0.6724,-0.6722,-0.6734,-0.6732,-0.6754,-0.6755,-0.6747,-0.6759,-0.6739,-0.6763,-0.6757,-0.6757,-0.6753,-0.6695,-0.668,-0.6639,-0.6716,-0.6716,-0.6715,0,-0.6649,-0.6654,-0.6635,-0.6651,-0.665,-0.6643,-0.6647,-0.6645,-0.6654,-0.6663,-0.6666,-0.6684,-0.6676,-0.67,-0.6688,-0.6704,-0.6703,-0.6708,-0.6707,-0.6706,-0.6732,-0.6691,-0.6627,-0.662,-0.6707,-0.6708,-0.6708,0,-0.6599,-0.66,-0.6589,-0.6592,-0.661,-0.6604,-0.6611,-0.6622,-0.6622,-0.6626,-0.6626,-0.6629,-0.663,-0.6631,-0.6649,-0.6665,-0.6634,-0.666,-0.664,-0.6639,-0.6631,-0.6631,-0.6564,-0.6633,-0.6633,-0.6633,-0.6633,0,-0.6549,-0.6536,-0.6566,-0.6559,-0.6545,-0.6569,-0.6554,-0.6564,-0.6574,-0.6568,-0.6593,-0.6587,-0.6612,-0.6609,-0.6623,-0.6611,-0.6611,-0.6617,-0.6621,-0.6614,-0.6613,-0.6613,-0.6615,-0.6631,-0.6632,-0.6632,-0.6632,0,-0.649,-0.6509,-0.6499,-0.6517,-0.6522,-0.651,-0.6526,-0.6519,-0.6533,-0.6526,-0.6525,-0.6546,-0.6543,-0.6562,-0.6563,-0.6572,-0.6552,-0.6562,-0.6549,-0.6551,-0.653,-0.6531,-0.6459,-0.6451,-0.6526,-0.6525,-0.6525,0,-0.6456,-0.6447,-0.6465,-0.6463,-0.6469,-0.6467,-0.6468,-0.6491,-0.6491,-0.65,-0.6493,-0.6492,-0.6493,-0.6488,-0.6502,-0.6503,-0.6511,-0.6486,-0.6511,-0.6505,-0.6509,-0.6509,-0.6507,-0.648,-0.6479,-0.6479,-0.6478,0,-0.6394,-0.6404,-0.6405,-0.6409,-0.6409,-0.6413,-0.6418,-0.6416,-0.6441,-0.6439,-0.6437,-0.6438,-0.6439,-0.6438,-0.6442,-0.6449,-0.6467,-0.647,-0.6465,-0.6458,-0.645,-0.6453,-0.6533,-0.6471,-0.6472,-0.6473,-0.6473,-0.6473,-0.6345,-0.6338,-0.635,-0.6349,-0.6356,-0.6361,-0.6356,-0.6369,-0.6368,-0.6371,-0.6385,-0.638,-0.6389,-0.6396,-0.6401,-0.6397,-0.6409,-0.6402,-0.64,-0.6398,-0.6393,-0.6452,-0.6398,-0.6398,-0.6399,-0.6399,-0.6399,0,-0.6283,-0.6292,-0.6292,-0.6299,-0.6299,-0.6318,-0.6325,-0.6323,-0.6319,-0.6326,-0.6327,-0.6324,-0.6323,-0.6338,-0.6339,-0.6333,-0.6341,-0.6332,-0.6332,-0.6333,-0.6383,-0.6387,-0.6325,-0.6325,-0.6325,-0.6325,-0.6325,-0.6325,-0.6251,-0.624,-0.6251,-0.6243,-0.6252,-0.6249,-0.6251,-0.6255,-0.6261,-0.6257,-0.6257,-0.6267,-0.6277,-0.6279,-0.6279,-0.6283,-0.6281,-0.6269,-0.6276,-0.6322,-0.6329,-0.6336,-0.634,-0.6269,-0.6269,-0.6226,-0.6225,-0.6225]}]]